Location: Tierra del Sol
(32.6128°N, 116.3319°W)
Time: 08:58:50
(UTC-08:00)

OTV 5 (USA 277) - Pass Details

Date: 10 October 2017
Orbit: 404 x 417 km, 43.0° (Epoch: 07 September)

Event Time Altitude Azimuth Distance (km) Brightness Sun altitude
Rises 19:48:37 0° 267° (W) 2,348 ? -19.9°
Reaches altitude 10° 19:50:56 10° 280° (W) 1,486 ? -20.4°
Maximum altitude 19:53:50 26° 340° (NNW) 852 ? -21.0°
Enters shadow 19:54:23 25° 357° (N) 883 ? -21.1°
